Flag for Germany Weather past 2 weeks in Schorndorf, Baden-Württemberg, Germany

Now
64 °F

Scattered clouds.


Feels Like: 64 °F
Forecast: 41 / 67 °F
Wind: 3 mph from Northeast

Location: Stuttgart-Echterdingen

Current Time: May 22, 2015 at 4:34:20 PM

Latest Report: May 22, 2015 at 4:00 PM


Visibility: 41 mi

Pressure: 30.19 "Hg

Humidity: 27%

Dew point: 29 °F

Location of SchorndorfLocation

Historic Weather in Schorndorf — Graph

°F

Schorndorf temperature yesterday

Maximum temperature yesterday: 60 °F (at 6:00 PM)
Minimum temperature yesterday: 46 °F (at 6:00 AM)
Average temperature yesterday: 52 °F

Past Weeks' High & Low Weather Summary

 TemperatureHumidityPressure
High84 °F (May 12, 5:00 PM)98% (May 16, 7:00 AM)30.36 "Hg (May 16, 7:00 AM)
Low37 °F (May 22, 6:00 AM)27% (May 12, 4:00 PM)29.71 "Hg (May 18, 7:00 PM)
Average58 °F65%30.08 "Hg
* Reported May 7 3:00 PM — May 22 3:00 PM, Schorndorf, Weather by CustomWeather, © 2015

Note: Actual official high and low records may vary slightly from our data, if they occured in-between our weather recording intervals... More about our weather records

Advertising

Schorndorf weather history for previous 24 hours

 ConditionsComfort  
Time TempWeatherWind HumidityBarometerVisibility
3:00 PM
Fri, May 22
63 °FScattered clouds.5 mph35%30.21 "Hg37 mi
2:00 PM62 °FScattered clouds.3 mph36%30.23 "Hg37 mi
1:00 PM60 °FScattered clouds.5 mph41%30.26 "Hg31 mi
12:00 PM58 °FScattered clouds.3 mph44%30.29 "Hg28 mi
10:00 AM54 °FPassing clouds.2 mph59%30.32 "Hg25 mi
9:00 AM49 °FPassing clouds.1 mph76%30.33 "Hg25 mi
8:00 AM45 °FPassing clouds.1 mph81%30.34 "Hg25 mi
7:00 AM40 °FSunny.1 mph91%30.36 "Hg25 mi
6:00 AM37 °FSunny.1 mph90%30.36 "Hg28 mi
4:00 AM41 °FClear.1 mph81%30.36 "Hg31 mi
3:00 AM41 °FClear.1 mph82%30.36 "Hg31 mi
2:00 AM43 °FQuite cool.3 mph76%30.35 "HgN/A
1:00 AM47 °FClear.1 mph64%30.34 "Hg31 mi
12:00 AM50 °FClear.2 mph57%30.34 "Hg31 mi
10:00 PM
Thu, May 21
53 °FPassing clouds.3 mph49%30.31 "Hg37 mi
9:00 PM55 °FPassing clouds.3 mph42%30.28 "Hg37 mi
8:00 PM58 °FPassing clouds.6 mph40%30.26 "Hg37 mi
7:00 PM59 °FPassing clouds.6 mph40%30.25 "Hg37 mi
6:00 PM60 °FPassing clouds.6 mph38%30.24 "Hg31 mi
4:00 PM57 °FScattered clouds.6 mph44%30.23 "Hg22 mi
Weather by CustomWeather, © 2015

See weather overviewHow to use our weather pages